Time,TemperatureF,DewpointF,PressureIn,WindDirection,WindDirectionDegrees,WindSpeedMPH,WindSpeedGustMPH,Humidity,HourlyPrecipIn,Conditions,Clouds,dailyrainin,SolarRadiationWatts/m^2,SoftwareType,DateUTC
2013-07-10 00:01:00,61.0,15.0,30.17,WNW,296,2.0,4.0,16,-99.99,,,-99.99,0.000000,,2013-07-10 07:01:00,
2013-07-10 00:10:00,59.0,14.0,30.18,WNW,296,5.0,7.0,17,-99.99,,,-99.99,0.000000,,2013-07-10 07:10:00,
2013-07-10 00:53:00,59.0,14.0,30.18,WNW,296,5.0,7.0,17,-99.99,,,-99.99,0.000000,,2013-07-10 07:53:00,
2013-07-10 01:01:00,59.0,14.0,30.18,WNW,296,5.0,7.0,17,-99.99,,,-99.99,0.000000,,2013-07-10 08:01:00,
2013-07-10 01:10:00,56.0,13.0,30.18,SSW,207,4.0,6.0,18,-99.99,,,-99.99,0.000000,,2013-07-10 08:10:00,
2013-07-10 02:02:00,56.0,13.0,30.18,SSW,207,4.0,6.0,18,-99.99,,,-99.99,0.000000,,2013-07-10 09:02:00,
2013-07-10 02:10:00,55.0,16.0,30.17,WNW,282,4.0,4.0,21,-99.99,,,-99.99,0.000000,,2013-07-10 09:10:00,
2013-07-10 02:52:00,55.0,16.0,30.17,WNW,282,4.0,4.0,21,-99.99,,,-99.99,0.000000,,2013-07-10 09:52:00,
2013-07-10 03:01:00,55.0,16.0,30.17,WNW,282,4.0,4.0,21,-99.99,,,-99.99,0.000000,,2013-07-10 10:01:00,
2013-07-10 03:10:00,56.0,15.0,30.16,WNW,286,6.0,7.0,20,-99.99,,,-99.99,0.000000,,2013-07-10 10:10:00,
2013-07-10 04:00:00,-999.0,-99.9,30.16,WNW,286,6.0,7.0,-999,-99.99,,,-99.99,,,2013-07-10 11:00:00,
2013-07-10 04:10:00,50.0,14.0,30.18,WNW,295,5.0,8.0,23,-99.99,,,-99.99,0.000000,,2013-07-10 11:10:00,
2013-07-10 04:52:00,50.0,14.0,30.18,WNW,295,5.0,8.0,23,-99.99,,,-99.99,0.000000,,2013-07-10 11:52:00,
2013-07-10 05:01:00,50.0,14.0,30.18,WNW,295,5.0,8.0,23,-99.99,,,-99.99,0.000000,,2013-07-10 12:01:00,
2013-07-10 05:10:00,53.0,14.0,30.19,NE,38,0.0,2.0,21,-99.99,,,-99.99,0.000000,,2013-07-10 12:10:00,
2013-07-10 05:52:00,53.0,14.0,30.19,NE,38,0.0,2.0,21,-99.99,,,-99.99,0.000000,,2013-07-10 12:52:00,
2013-07-10 06:01:00,53.0,14.0,30.19,NE,38,0.0,2.0,21,-99.99,,,-99.99,0.000000,,2013-07-10 13:01:00,
2013-07-10 06:10:00,58.0,12.0,30.20,SW,234,1.0,2.0,16,-99.99,,,-99.99,90.000000,,2013-07-10 13:10:00,
2013-07-10 07:01:00,58.0,12.0,30.20,SW,234,1.0,2.0,16,-99.99,,,-99.99,90.000000,,2013-07-10 14:01:00,
2013-07-10 07:10:00,63.0,22.0,30.20,SE,142,1.0,3.0,21,-99.99,,,-99.99,280.000000,,2013-07-10 14:10:00,
2013-07-10 08:01:00,63.0,22.0,30.20,SE,142,1.0,3.0,21,-99.99,,,-99.99,280.000000,,2013-07-10 15:01:00,
2013-07-10 08:10:00,69.0,28.0,30.20,East,90,1.0,3.0,21,-99.99,,,-99.99,500.000000,,2013-07-10 15:10:00,
2013-07-10 09:01:00,69.0,28.0,30.20,East,90,1.0,3.0,21,-99.99,,,-99.99,500.000000,,2013-07-10 16:01:00,
2013-07-10 09:10:00,75.0,26.0,30.19,SE,124,4.0,7.0,16,-99.99,,,-99.99,690.000000,,2013-07-10 16:10:00,
2013-07-10 10:02:00,75.0,26.0,30.19,SE,124,4.0,7.0,16,-99.99,,,-99.99,690.000000,,2013-07-10 17:02:00,
2013-07-10 10:52:00,81.0,23.0,30.17,SE,130,3.0,7.0,12,-99.99,,,-99.99,850.000000,,2013-07-10 17:52:00,
2013-07-10 11:02:00,81.0,23.0,30.17,SE,130,3.0,7.0,12,-99.99,,,-99.99,850.000000,,2013-07-10 18:02:00,
2013-07-10 12:10:00,92.0,22.0,30.14,SE,140,4.0,13.0,8,-99.99,,,-99.99,1040.000000,,2013-07-10 19:10:00,
2013-07-10 12:52:00,92.0,22.0,30.14,SE,140,4.0,13.0,8,-99.99,,,-99.99,1040.000000,,2013-07-10 19:52:00,
2013-07-10 13:01:00,92.0,22.0,30.14,SE,140,4.0,13.0,8,-99.99,,,-99.99,1040.000000,,2013-07-10 20:01:00,
2013-07-10 13:10:00,94.0,23.0,30.12,ESE,105,5.0,12.0,8,-99.99,,,-99.99,1050.000000,,2013-07-10 20:10:00,
2013-07-10 13:52:00,94.0,23.0,30.12,ESE,105,5.0,12.0,8,-99.99,,,-99.99,1050.000000,,2013-07-10 20:52:00,
2013-07-10 14:01:00,94.0,23.0,30.12,ESE,105,5.0,12.0,8,-99.99,,,-99.99,1050.000000,,2013-07-10 21:01:00,
2013-07-10 14:10:00,96.0,25.0,30.09,WNW,282,9.0,19.0,8,-99.99,,,-99.99,990.000000,,2013-07-10 21:10:00,
2013-07-10 14:52:00,96.0,25.0,30.09,WNW,282,9.0,19.0,8,-99.99,,,-99.99,990.000000,,2013-07-10 21:52:00,
2013-07-10 15:01:00,96.0,25.0,30.09,WNW,282,9.0,19.0,8,-99.99,,,-99.99,990.000000,,2013-07-10 22:01:00,
2013-07-10 15:10:00,95.0,25.0,30.08,West,261,8.0,14.0,8,-99.99,,,-99.99,880.000000,,2013-07-10 22:10:00,
2013-07-10 15:53:00,95.0,25.0,30.08,West,261,8.0,14.0,8,-99.99,,,-99.99,880.000000,,2013-07-10 22:53:00,
2013-07-10 16:01:00,95.0,25.0,30.08,West,261,8.0,14.0,8,-99.99,,,-99.99,880.000000,,2013-07-10 23:01:00,
2013-07-10 16:10:00,96.0,25.0,30.05,WSW,257,5.0,11.0,8,-99.99,,,-99.99,730.000000,,2013-07-10 23:10:00,
2013-07-10 17:01:00,96.0,25.0,30.05,WSW,257,5.0,11.0,8,-99.99,,,-99.99,730.000000,,2013-07-11 00:01:00,
2013-07-10 17:10:00,92.0,25.0,30.03,WSW,252,9.0,16.0,9,-99.99,,,-99.99,370.000000,,2013-07-11 00:10:00,
2013-07-10 17:52:00,92.0,25.0,30.03,WSW,252,9.0,16.0,9,-99.99,,,-99.99,370.000000,,2013-07-11 00:52:00,
2013-07-10 18:01:00,92.0,25.0,30.03,WSW,252,9.0,16.0,9,-99.99,,,-99.99,370.000000,,2013-07-11 01:01:00,
2013-07-10 18:10:00,91.0,27.0,30.02,West,260,8.0,15.0,10,-99.99,,,-99.99,280.000000,,2013-07-11 01:10:00,
2013-07-10 18:52:00,91.0,27.0,30.02,West,260,8.0,15.0,10,-99.99,,,-99.99,280.000000,,2013-07-11 01:52:00,
2013-07-10 19:02:00,91.0,27.0,30.02,West,260,8.0,15.0,10,-99.99,,,-99.99,280.000000,,2013-07-11 02:02:00,
2013-07-10 19:10:00,88.0,24.0,-100.00,West,262,16.0,26.0,10,-99.99,,,-99.99,90.000000,,2013-07-11 02:10:00,
2013-07-10 19:53:00,88.0,24.0,30.02,West,262,16.0,26.0,10,-99.99,,,-99.99,90.000000,,2013-07-11 02:53:00,
2013-07-10 20:01:00,88.0,24.0,30.02,West,262,16.0,26.0,10,-99.99,,,-99.99,90.000000,,2013-07-11 03:01:00,
2013-07-10 20:10:00,87.0,26.0,-100.00,West,267,17.0,30.0,11,-99.99,,,-99.99,0.000000,,2013-07-11 03:10:00,
2013-07-10 20:52:00,87.0,26.0,-100.00,West,267,17.0,30.0,11,-99.99,,,-99.99,0.000000,,2013-07-11 03:52:00,
2013-07-10 21:01:00,87.0,26.0,-100.00,West,267,17.0,30.0,11,-99.99,,,-99.99,0.000000,,2013-07-11 04:01:00,
2013-07-10 21:10:00,85.0,29.0,30.05,West,265,15.0,29.0,13,-99.99,,,-99.99,0.000000,,2013-07-11 04:10:00,
2013-07-10 21:53:00,85.0,29.0,30.05,West,265,15.0,29.0,13,-99.99,,,-99.99,0.000000,,2013-07-11 04:53:00,
2013-07-10 22:01:00,85.0,29.0,30.05,West,265,15.0,29.0,13,-99.99,,,-99.99,0.000000,,2013-07-11 05:01:00,
2013-07-10 22:10:00,86.0,27.0,30.05,WSW,256,13.0,23.0,12,-99.99,,,-99.99,0.000000,,2013-07-11 05:10:00,
2013-07-10 23:01:00,86.0,27.0,30.05,WSW,256,13.0,23.0,12,-99.99,,,-99.99,0.000000,,2013-07-11 06:01:00,
2013-07-10 23:10:00,79.0,28.0,-100.00,East,100,1.0,2.0,15,-99.99,,,-99.99,0.000000,,2013-07-11 06:10:00,
2013-07-10 23:52:00,79.0,28.0,30.06,East,100,1.0,2.0,15,-99.99,,,-99.99,0.000000,,2013-07-11 06:52:00,